Tracking 22879 objects as of 21-Apr-2021
HD Live streaming from Space Station
objects crossing your sky now

STARLINK-2103

Track STARLINK-2103 now!
10-day predictions
STARLINK-2103 is classified as:


NORAD ID: 47383
Int'l Code: 2021-005AL
Perigee: 384.1 km
Apogee: 389.6 km
Inclination: 53.1 °
Period: 92.1 minutes
Semi major axis: 6757 km
RCS: Unknown
Launch date: January 20, 2021
Source: United States (US)
Launch site: AIR FORCE EASTERN TEST RANGE (AFETR)
aabbcc
Your satellite tracking list
Your tracking list is empty




NASA's NSSDC Master Catalog

Two Line Element Set (TLE):
1 47383U 21005AL  21110.91667824  .00075644  00000-0  82392-3 0  9994
2 47383  53.0540 127.9069 0004103   1.8031  69.1995 15.62757672 14483
Source of the keplerian elements: AFSPC